"Pseudo-MPEC" for ZTF01sV

Created 2018 Dec 11 20:18:08 UT using Find_Orb

Click here for an explanation of pseudo-MPECs

 
 Astrometry: 
     ZTF01sV  C2018 12 04.22473701 49 39.44 +39 53 16.8          18.45RUNEOCPI41
     ZTF01sV  C2018 12 04.22508401 49 39.05 +39 53 06.2          18.45RUNEOCPI41
     ZTF01sV  C2018 12 04.22658601 49 37.86 +39 52 15.9          18.33RUNEOCPI41
     ZTF01sV  C2018 12 04.22693301 49 37.40 +39 52 05.1          18.33RUNEOCPI41

Station data:
(I41) Palomar Mountain--ZTF  (N33.357340 W116.859780)  US/California. 1.2-m
   f/2.44 Oschin Schmidt + CCD.

Orbital elements:  ZTF01sV
   Perigee 2018 Dec 6.550694 +/- 74.4 TT = 13:13:00 (JD 2458459.050694)
Epoch 2018 Dec  4.0 TT = JDT 2458456.5                        AutoNEOCP
q 74421.0584 +/- 4.43e+7            (J2000 equator)
H   30.4  G 0.15                    Peri.  262.70002 +/- 70
                                    Node   217.51514 +/- 70
e   1.0665125 +/- 0.228             Incl.   78.30610 +/- 36
From 4 observations 2018 Dec. 4 (3.2 min); mean residual 0".57
Residuals in arcseconds: 
181204 I41  .34+  .33-    181204 I41  1.0+  .38-    
181204 I41  .60-  .46+    181204 I41  .75-  .27+    

Ephemerides (geocentric):
Date (UTC) HH   RA              Dec         delta   r     elong  mag " sig PA
---- -- -- --  -------------   -----------  ------ ------ -----  --- ---- ---
2018 12 11 20  15 09 40.041   +38 27 30.01  696896 .98291  68.1 22.9  46d 145
2018 12 11 21  15 09 48.556   +38 33 30.00  701053 .98290  68.1 22.9  46d 145
2018 12 11 22  15 09 56.991   +38 39 25.65  705203 .98289  68.2 22.9  46d 144
2018 12 11 23  15 10 05.347   +38 45 17.03  709343 .98288  68.3 23.0  46d 144
2018 12 12 00  15 10 13.626   +38 51 04.23  713476 .98288  68.4 23.0  46d 144
2018 12 12 01  15 10 21.828   +38 56 47.33  717600 .98287  68.5 23.0  46d 144
2018 12 12 02  15 10 29.955   +39 02 26.41  721716 .98286  68.6 23.0  46d 144
2018 12 12 03  15 10 38.008   +39 08 01.55  725824 .98285  68.7 23.0  46d 144
2018 12 12 04  15 10 45.988   +39 13 32.81  729924 .98284  68.8 23.0  46d 144
2018 12 12 05  15 10 53.897   +39 19 00.27  734016 .98284  68.9 23.0  46d 144
2018 12 12 06  15 11 01.735   +39 24 23.99  738100 .98283  68.9 23.0  46d 144
2018 12 12 07  15 11 09.504   +39 29 44.06  742176 .98282  69.0 23.0  46d 144
2018 12 12 08  15 11 17.204   +39 35 00.53  746245 .98281  69.1 23.0  46d 144
2018 12 12 09  15 11 24.837   +39 40 13.46  750306 .98281  69.2 23.0  46d 144
2018 12 12 10  15 11 32.404   +39 45 22.93  754359 .98280  69.3 23.0  46d 144
2018 12 12 11  15 11 39.905   +39 50 28.98  758405 .98279  69.4 23.0  46d 144
2018 12 12 12  15 11 47.342   +39 55 31.69  762443 .98278  69.4 23.0  46d 144
2018 12 12 13  15 11 54.715   +40 00 31.11  766475 .98278  69.5 23.1  46d 144
2018 12 12 14  15 12 02.026   +40 05 27.29  770498 .98277  69.6 23.1  46d 144
2018 12 12 15  15 12 09.276   +40 10 20.30  774515 .98276  69.7 23.1  46d 144
2018 12 12 16  15 12 16.464   +40 15 10.18  778524 .98275  69.8 23.1  46d 144
2018 12 12 17  15 12 23.593   +40 19 56.99  782527 .98275  69.8 23.1  46d 144
2018 12 12 18  15 12 30.663   +40 24 40.78  786522 .98274  69.9 23.1  46d 144
2018 12 12 19  15 12 37.675   +40 29 21.61  790510 .98273  70.0 23.1  46d 144
2018 12 12 20  15 12 44.629   +40 33 59.51  794491 .98272  70.1 23.1  46d 144
2018 12 12 21  15 12 51.527   +40 38 34.54  798466 .98272  70.1 23.1  46d 143
2018 12 12 22  15 12 58.369   +40 43 06.74  802433 .98271  70.2 23.1  46d 143
2018 12 12 23  15 13 05.157   +40 47 36.17  806394 .98270  70.3 23.1  46d 143
2018 12 13 00  15 13 11.890   +40 52 02.86  810348 .98270  70.4 23.1  46d 143
2018 12 13 01  15 13 18.569   +40 56 26.86  814296 .98269  70.4 23.1  46d 143
2018 12 13 02  15 13 25.196   +41 00 48.21  818236 .98268  70.5 23.1  46d 143
2018 12 13 03  15 13 31.771   +41 05 06.95  822171 .98268  70.6 23.1  46d 143
2018 12 13 04  15 13 38.294   +41 09 23.13  826098 .98267  70.7 23.1  46d 143
2018 12 13 05  15 13 44.767   +41 13 36.78  830020 .98266  70.7 23.2  46d 143
2018 12 13 06  15 13 51.190   +41 17 47.95  833935 .98266  70.8 23.2  46d 143
2018 12 13 07  15 13 57.563   +41 21 56.66  837843 .98265  70.9 23.2  46d 143
2018 12 13 08  15 14 03.888   +41 26 02.97  841746 .98264  70.9 23.2  46d 143
2018 12 13 09  15 14 10.165   +41 30 06.90  845642 .98263  71.0 23.2  46d 143
2018 12 13 10  15 14 16.395   +41 34 08.48  849532 .98263  71.1 23.2  46d 143
2018 12 13 11  15 14 22.577   +41 38 07.77  853415 .98262  71.1 23.2  46d 143
2018 12 13 12  15 14 28.714   +41 42 04.79  857293 .98261  71.2 23.2  46d 143
2018 12 13 13  15 14 34.805   +41 45 59.56  861165 .98261  71.3 23.2  46d 143
2018 12 13 14  15 14 40.851   +41 49 52.14  865030 .98260  71.3 23.2  46d 143
2018 12 13 15  15 14 46.852   +41 53 42.54  868890 .98260  71.4 23.2  46d 143
2018 12 13 16  15 14 52.809   +41 57 30.80  872744 .98259  71.5 23.2  46d 143
2018 12 13 17  15 14 58.724   +42 01 16.95  876591 .98258  71.5 23.2  46d 143
2018 12 13 18  15 15 04.595   +42 05 01.02  880433 .98258  71.6 23.2  46d 143
2018 12 13 19  15 15 10.424   +42 08 43.05  884270 .98257  71.7 23.2  46d 143